Date,TemperatureHighF,TemperatureAvgF,TemperatureLowF,DewpointHighF,DewpointAvgF,DewpointLowF,HumidityHigh,HumidityAvg,HumidityLow,PressureMaxIn,PressureMinIn,WindSpeedMaxMPH,WindSpeedAvgMPH,GustSpeedMaxMPH,PrecipitationSumIn
2013-9-1,83.0,73.5,68.0,72.0,67.2,-99.9,95,83,65,29.79,29.70,3,0,8,0.15
2013-9-2,79.0,70.3,59.0,68.0,63.5,52.0,96,80,47,29.89,29.70,5,1,8,0.04
2013-9-3,76.0,63.7,57.0,58.0,53.7,50.0,90,71,49,30.01,29.88,4,1,7,0.04
2013-9-4,83.0,66.7,53.0,61.0,55.6,51.0,95,72,38,30.09,30.00,4,1,13,0.00
2013-9-5,72.0,62.5,55.0,58.0,50.9,39.0,94,70,34,30.23,30.06,5,1,10,0.00
2013-9-6,79.0,61.3,46.0,57.0,49.8,44.0,95,70,32,30.26,30.06,2,0,5,0.00
2013-9-7,84.0,68.2,56.0,68.0,58.1,47.0,85,71,51,30.06,29.87,4,0,10,0.00
2013-9-8,74.0,67.4,60.0,66.0,60.2,-99.9,92,80,61,30.03,29.90,5,1,12,0.00
2013-9-9,85.0,65.9,53.0,72.0,61.6,51.0,95,87,65,30.04,29.88,1,0,6,0.43
2013-9-10,98.0,83.6,74.0,74.0,69.1,63.0,89,65,34,29.99,29.89,5,1,13,0.01
2013-9-11,96.0,80.8,70.0,73.0,68.3,64.0,90,69,37,30.02,29.88,7,1,13,0.00
2013-9-12,80.0,70.3,58.0,68.0,62.0,51.0,95,77,43,29.93,29.80,5,1,11,0.09
2013-9-13,61.0,53.8,44.0,51.0,44.6,39.0,89,72,50,30.12,29.93,6,2,12,0.07
2013-9-14,71.0,52.2,37.0,48.0,41.1,35.0,95,70,35,30.20,30.10,2,0,6,0.00
2013-9-15,68.0,53.1,46.0,54.0,47.0,-99.9,94,83,49,30.13,30.01,4,0,6,0.11
2013-9-16,64.0,55.9,49.0,53.0,50.0,44.0,96,81,55,30.35,30.10,5,1,10,0.11
2013-9-17,66.0,52.2,39.0,52.0,44.9,37.0,95,78,50,30.38,30.21,4,1,12,0.01
2013-9-18,61.0,47.3,46.0,49.0,45.3,44.0,95,93,90,30.21,30.03,0,0,0,0.00
2013-9-19,83.0,68.3,60.0,68.0,63.1,57.0,94,85,61,30.03,29.90,3,0,9,0.00
2013-9-20,85.0,72.6,68.0,71.0,67.5,65.0,95,85,60,29.92,29.71,5,1,13,0.13
2013-9-21,70.0,63.0,54.0,67.0,55.2,46.0,95,78,45,29.85,29.66,5,1,9,0.36
2013-9-22,62.0,53.6,47.0,47.0,41.1,-99.9,86,65,48,30.06,29.84,4,1,12,0.03
2013-9-23,62.0,51.3,43.0,47.0,44.0,40.0,93,77,54,30.17,30.06,4,1,8,0.00
2013-9-24,65.0,50.9,38.0,50.0,44.2,37.0,96,80,51,30.14,29.98,6,0,11,0.00
2013-9-25,70.0,56.6,43.0,57.0,50.7,41.0,96,82,56,29.99,29.92,3,1,14,0.00
2013-9-26,76.0,58.6,42.0,58.0,48.9,41.0,96,75,36,30.11,29.97,3,0,10,0.01
2013-9-27,73.0,57.5,44.0,60.0,50.8,42.0,97,81,51,30.21,30.11,5,1,11,0.01
2013-9-28,80.0,61.8,44.0,60.0,52.6,43.0,97,75,39,30.18,30.00,2,0,14,0.01
2013-9-29,63.0,60.2,57.0,61.0,55.1,-99.9,96,86,68,30.01,29.94,2,0,5,0.01
2013-9-30,72.0,60.6,54.0,59.0,55.9,53.0,96,86,56,30.01,29.91,2,0,6,0.00